Location: Marcé
(47.5801°N, 0.3280°W)
Time: 14:17:21
(UTC+01:00)

Explorer 7 - Pass Details

Date: 05 December 2021
Orbit: 483 x 674 km, 50.3° (Epoch: 19 January)

Event Time Altitude Azimuth Distance (km) Brightness Sun altitude
Rises 09:35:45 0° 281° (WNW) 2,733 9.9 7.3°
Reaches altitude 10° 09:38:05 10° 285° (WNW) 1,805 9.0 7.6°
Maximum altitude 09:42:07 59° 6° (N) 603 7.0 8.1°
Drops below altitude 10° 09:45:57 10° 87° (E) 1,711 10.0 8.5°
Sets 09:48:06 0° 91° (E) 2,574 11.0 8.7°
